Debrecen, Hungary

10:44 AM CET on December 10, 2016 (GMT +0100)
Debrecen

Weather History for LHDC - June, 2013

Change the Weather History Date:

Wednesday, June 19, 2013

  Actual Average Record
Temperature  
Mean Temperature 80 °F -  
Max Temperature 91 °F 79 °F - ()
Min Temperature 69 °F 57 °F - ()
Cooling Degree Days 15    
Growing Degree Days 30 (Base 50)    
Moisture  
Dew Point 67 °F    
Average Humidity 57    
Maximum Humidity 88    
Minimum Humidity 35    
Precipitation  
Precipitation 0.00 in 0.09 in - ()
Sea Level Pressure  
Sea Level Pressure 30.02 in    
Wind  
Wind Speed 3 mph ()    
Max Wind Speed 13 mph    
Max Gust Speed -    
Visibility 8.3 miles    
Events Rain , Thunderstorm    
T = Trace of Precipitation, MM = Missing Value Source: Averaged Metar Reports

Daily Weather History Graph

Daily Weather History Graph

Search for Another Location

Airport or City:

Trip Planner

Search our weather history database for the weather conditions in past years. The results will help you decide how hot, cold, wet, or windy it might be!

Date:

Astronomy

Jun. 19, 2013 Rise Set
Actual Time 4:35 AM CEST 8:33 PM CEST
Civil Twilight 3:55 AM CEST 9:14 PM CEST
Nautical Twilight 2:59 AM CEST 10:10 PM CEST
Astronomical Twilight 1:30 AM CEST 11:39 PM CEST
Moon 3:52 PM CEST (6/19) 1:24 AM CEST (6/19)
Length of Visible Light 17h 19m
Length of Day
15h 58m
Waxing Gibbous, 78% of the Moon is Illuminated
Jun 19
Waxing Gibbous
Jun 23
Full
Jun 30
Last Quarter
Jul 8
New
Jul 16
First Quarter

Hourly Weather History & Observations

Time (CEST) Temp. Heat Index Dew Point Humidity Pressure Visibility Wind Dir Wind Speed Gust Speed Precip Events Conditions
2:00 AM 72 °F - 66 °F 75% 30.00 in - Calm Calm - -  
4:45 AM 69.8 °F - 66.2 °F 88% 30.04 in - Calm Calm - N/A   Clear
5:45 AM 71.6 °F - 66.2 °F 83% 30.04 in - West 1.2 mph - N/A   Clear
6:15 AM 71.6 °F - 68.0 °F 88% 30.04 in - Calm Calm - N/A   Clear
6:45 AM 73.4 °F - 68.0 °F 83% 30.04 in - Calm Calm - N/A   Clear
7:00 AM - - - N/A% - - Variable 3.5 mph - N/A Rain , Thunderstorm Rain Showers
7:15 AM 77.0 °F - 68.0 °F 74% 30.04 in - Calm Calm - N/A   Clear
7:45 AM 78.8 °F - 68.0 °F 69% 30.04 in - South 2.3 mph - N/A   Clear
8:00 AM 79 °F - 69 °F 63% 30.01 in 9 mi South 2.2 mph - -   Partly Cloudy
8:15 AM 78.8 °F - 69.8 °F 74% 30.04 in - South 3.5 mph - N/A   Clear
8:45 AM 80.6 °F 83.2 °F 68.0 °F 65% 30.04 in - SW 2.3 mph - N/A   Clear
9:15 AM 82.4 °F 86.3 °F 69.8 °F 66% 30.04 in - SW 3.5 mph - N/A   Clear
9:45 AM 84.2 °F 88.4 °F 69.8 °F 62% 30.04 in - WSW 3.5 mph - N/A   Clear
10:00 AM - - - N/A% - - Variable 3.5 mph - N/A   Dust Whirls
10:15 AM 84.2 °F 89.6 °F 71.6 °F 66% 30.04 in - West 3.5 mph - N/A   Clear
10:45 AM 86.0 °F 90.4 °F 69.8 °F 58% 30.04 in 6.2 mi SW 3.5 mph - N/A   Partly Cloudy
11:15 AM 87.8 °F 91.4 °F 68.0 °F 52% 30.04 in 6.2 mi NW 3.5 mph - N/A   Partly Cloudy
11:45 AM 89.6 °F 92.2 °F 66.2 °F 46% 30.04 in 6.2 mi NNW 3.5 mph - N/A   Partly Cloudy
12:15 PM 87.8 °F 92.6 °F 69.8 °F 55% 30.04 in 6.2 mi North 4.6 mph - N/A   Partly Cloudy
12:45 PM 87.8 °F 90.4 °F 66.2 °F 49% 30.04 in - NNW 4.6 mph - N/A   Clear
1:00 PM - - - N/A% - - NNE 6.9 mph - N/A   Dust Whirls
1:15 PM 89.6 °F 91.1 °F 64.4 °F 43% 30.04 in - North 4.6 mph - N/A   Clear
1:45 PM 89.6 °F 92.2 °F 66.2 °F 46% 30.01 in - NNW 5.8 mph - N/A   Clear
2:00 PM 90 °F - 66 °F 35% 30.00 in 16 mi NNW 4.5 mph - -   Partly Cloudy
2:15 PM 89.6 °F 92.2 °F 66.2 °F 46% 30.01 in - NNW 6.9 mph - N/A   Clear
2:45 PM 91.4 °F 93.2 °F 64.4 °F 41% 30.01 in - NW 5.8 mph - N/A   Clear
3:15 PM 91.4 °F 93.2 °F 64.4 °F 41% 30.01 in - NNW 4.6 mph - N/A   Clear
3:45 PM 91.4 °F 93.2 °F 64.4 °F 41% 30.01 in - NNW 4.6 mph - N/A   Clear
4:15 PM 91.4 °F 92.1 °F 62.6 °F 38% 30.01 in - WNW 5.8 mph - N/A   Clear
4:45 PM 91.4 °F 93.2 °F 64.4 °F 41% 30.01 in - NE 5.8 mph - N/A   Clear
5:15 PM 91.4 °F 93.2 °F 64.4 °F 41% 30.01 in - North 8.1 mph - N/A   Clear
5:45 PM 89.6 °F 91.1 °F 64.4 °F 43% 30.01 in - North 8.1 mph - N/A   Clear
6:15 PM 89.6 °F 92.2 °F 66.2 °F 46% 30.01 in - NNE 9.2 mph - N/A   Clear
6:45 PM 87.8 °F 90.4 °F 66.2 °F 49% 30.01 in - NE 10.4 mph - N/A   Clear
7:15 PM 86.0 °F 89.4 °F 68.0 °F 55% 30.01 in - NE 12.7 mph - N/A   Clear
7:45 PM 84.2 °F 87.3 °F 68.0 °F 58% 30.01 in - NE 10.4 mph - N/A   Clear
8:00 PM 84 °F - 68 °F 50% 30.00 in 22 mi NE 11.2 mph - -   Partly Cloudy
8:15 PM 82.4 °F 86.3 °F 69.8 °F 66% 30.04 in - NE 9.2 mph - N/A   Clear
8:45 PM 80.6 °F 83.9 °F 69.8 °F 70% 30.04 in - NE 10.4 mph - N/A   Clear
9:00 PM - - - N/A% - - North - - N/A   Unknown